Skip Page Navigation
NASA JPL Caltech
NASA Logo - Jet Propulsion Laboratory + View the NASA Portal
+ Near-Earth Object (NEO) Program
Search JPL
JPL Home Earth Solar System Stars & Galaxies Technology
JPL Solar System Dynamics
BODIES ORBITS EPHEMERIDES TOOLS PHYSICAL DATA DISCOVERY FAQ SITE MAP
JPL Small-Body Database Browser
Search: [ help ]  
2542 Calpurnia (1980 CF)
Classification: Main-belt Asteroid          SPK-ID: 2002542
Ephemeris | Orbit Diagram | Orbital Elements | Physical Parameters | Discovery Circumstances | Close-Approach Data ]

[ show orbit diagram ]
Orbital Elements at Epoch 2456800.5 (2014-May-23.0) TDB
Reference: JPL 11 (heliocentric ecliptic J2000)
 Element Value Uncertainty (1-sigma)   Units 
e .07348196257684082 5.4726e-08  
a 3.130571835317417 2.7829e-08 AU
q 2.900531272870511 1.7251e-07 AU
i 4.620620673457381 5.4926e-06 deg
node 145.7254834131967 7.1689e-05 deg
peri 47.30870186169133 8.171e-05 deg
M 36.11938838315827 3.6939e-05 deg
tp 2456597.511317680954
(2013-Nov-01.01131768)
0.00020844 JED
period 2023.177271432716
5.54
2.6977e-05
7.386e-08
d
yr
n .1779379420099285 2.3726e-09 deg/d
Q 3.360612397764323 2.9874e-08 AU
  Orbit Determination Parameters
   # obs. used (total)      1293  
   data-arc span      21908 days (59.98 yr)  
   first obs. used      1954-07-03  
   last obs. used      2014-06-26  
   planetary ephem.      DE431  
   SB-pert. ephem.      SB431-BIG16  
   condition code      0  
   fit RMS      .47523  
   data source      ORB  
   producer      Otto Matic  
   solution date      2014-Jul-14 12:03:19  

Additional Information
 Earth MOID = 1.90324 AU 
 T_jup = 3.204 
[ show covariance matrix ]

Ephemeris | Orbit Diagram | Orbital Elements | Physical Parameters | Discovery Circumstances | Close-Approach Data ]

Physical Parameter Table
Parameter Symbol Value Units Sigma Reference Notes
absolute magnitude H 11.5 mag n/a MPO263368  
diameter diameter 27.61 km 2.3 IRAS-A-FPA-3-RDR-IMPS-V6.0 IRAS observations used: 3
geometric albedo albedo 0.0639   0.012 IRAS-A-FPA-3-RDR-IMPS-V6.0 IRAS observations used: 3

2542 Calpurnia (1980 CF)          Discovered 1980-Feb-11 by Bowell, E. at Flagstaff (AM) (688)
Discovered at the Anderson Mesa station, which is operated by the Lowell Observatory.
Reference: DISCOVERY.DBLast Updated: 2003-08-29

[ show close-approach data ]
Alternate Designations
 1980 CF = 1972 XN2 = 1976 OE 
Ephemeris | Orbit Diagram | Orbital Elements | Physical Parameters | Discovery Circumstances | Close-Approach Data ]
ABOUT SSD CREDITS/AWARDS PRIVACY/COPYRIGHT GLOSSARY LINKS
FirstGov 2014-Jul-26 03:05 UT
(server date/time)  
NASA Home Page
Site Manager:   Donald K. Yeomans
Webmaster  Alan B. Chamberlin